AVA121 EGLL-SKBO

Flight info

Callsign AVA121
Flight time N/A
Altitude 32000
Route GASGU N514 ADKIK DCT JOZMA DCT LULOX/M082F320 DCT SOMAX DCT 49N020W 45N027W 42N030W 38N035W/M082F340 35N040W 32N050W DCT SIFEN/M082F360 M596 NUBUS/N0479F360 DCT KATOK/N0473F380 DCT KARUM UL342 ENPUT DCT DOPLO DOPLO5E
Aircraft MD11/H-SDE1E2E3FGHIJ2J3J4J5M1RWXY/LB1D1

Departure

Time 2026-04-30 19:26
Airport London Heathrow Airport (EGLL)

Arrival

Time N/A
Airport El Dorado International Airport (SKBO)
Time Latitude Longitude Altitude Speed Heading
2026-04-30 18:45 51.47267 -0.44195 94 ft 0 kts 270°
2026-04-30 19:06 51.47268 -0.44131 92 ft 4 kts 270°
2026-04-30 19:06 51.47267 -0.44097 92 ft 4 kts 261°
2026-04-30 19:06 51.47293 -0.44058 94 ft 3 kts 180°
2026-04-30 19:07 51.47321 -0.44059 93 ft 0 kts 180°
2026-04-30 19:10 51.47303 -0.44059 95 ft 3 kts 180°
2026-04-30 19:11 51.47260 -0.44058 93 ft 8 kts 180°
2026-04-30 19:11 51.47161 -0.44057 93 ft 6 kts 180°
2026-04-30 19:11 51.47125 -0.44057 93 ft 5 kts 180°
2026-04-30 19:12 51.47092 -0.44057 94 ft 5 kts 180°
2026-04-30 19:12 51.47062 -0.44056 93 ft 4 kts 180°
2026-04-30 19:12 51.47031 -0.44056 95 ft 5 kts 180°
2026-04-30 19:13 51.46904 -0.44055 97 ft 13 kts 180°
2026-04-30 19:13 51.46705 -0.44054 97 ft 12 kts 181°
2026-04-30 19:13 51.46680 -0.44076 94 ft 2 kts 229°
2026-04-30 19:14 51.46672 -0.44106 93 ft 4 kts 251°
2026-04-30 19:14 51.46668 -0.44149 93 ft 5 kts 263°
2026-04-30 19:14 51.46666 -0.44225 93 ft 9 kts 269°
2026-04-30 19:14 51.46666 -0.44353 94 ft 14 kts 270°
2026-04-30 19:15 51.46665 -0.44510 94 ft 14 kts 269°
2026-04-30 19:15 51.46664 -0.44798 94 ft 12 kts 269°
2026-04-30 19:15 51.46663 -0.44932 94 ft 12 kts 269°
2026-04-30 19:16 51.46663 -0.45062 95 ft 11 kts 269°
2026-04-30 19:16 51.46662 -0.45187 94 ft 11 kts 269°
2026-04-30 19:16 51.46662 -0.45434 93 ft 14 kts 271°
2026-04-30 19:17 51.46661 -0.45625 93 ft 19 kts 270°
2026-04-30 19:17 51.46661 -0.46039 93 ft 18 kts 270°
2026-04-30 19:17 51.46660 -0.46231 94 ft 17 kts 270°
2026-04-30 19:18 51.46659 -0.46527 97 ft 15 kts 269°
2026-04-30 19:18 51.46657 -0.46744 97 ft 14 kts 269°
2026-04-30 19:18 51.46656 -0.46900 97 ft 13 kts 271°
2026-04-30 19:19 51.46656 -0.47049 97 ft 13 kts 270°
2026-04-30 19:19 51.46656 -0.47196 96 ft 13 kts 269°
2026-04-30 19:19 51.46656 -0.47521 96 ft 17 kts 270°
2026-04-30 19:20 51.46654 -0.47713 93 ft 17 kts 270°
2026-04-30 19:20 51.46653 -0.47887 93 ft 15 kts 269°
2026-04-30 19:20 51.46653 -0.48160 94 ft 9 kts 271°
2026-04-30 19:21 51.46653 -0.48235 94 ft 6 kts 270°
2026-04-30 19:21 51.46653 -0.48260 94 ft 0 kts 270°
2026-04-30 19:22 51.46652 -0.48587 94 ft 16 kts 269°
2026-04-30 19:23 51.46525 -0.48764 93 ft 6 kts 161°
2026-04-30 19:24 51.46485 -0.48692 96 ft 3 kts 111°
2026-04-30 19:24 51.46481 -0.48667 96 ft 2 kts 101°
2026-04-30 19:24 51.46480 -0.48389 94 ft 52 kts 90°
2026-04-30 19:25 51.46492 -0.43620 560 ft 188 kts 88°
2026-04-30 19:26 51.45701 -0.39754 1670 ft 206 kts 123°
2026-04-30 19:26 51.43879 -0.35577 2611 ft 234 kts 126°
2026-04-30 19:26 51.42954 -0.33477 3375 ft 233 kts 128°
2026-04-30 19:27 51.40148 -0.31329 4549 ft 245 kts 189°
2026-04-30 19:27 51.37237 -0.34365 5706 ft 261 kts 221°
2026-04-30 19:28 51.35932 -0.36412 6373 ft 264 kts 221°
2026-04-30 19:28 51.33230 -0.40520 7625 ft 271 kts 220°
2026-04-30 19:29 51.30632 -0.44949 8841 ft 280 kts 240°
2026-04-30 19:29 51.29889 -0.47854 9444 ft 287 kts 249°
2026-04-30 19:30 51.28202 -0.57169 11189 ft 297 kts 250°
2026-04-30 19:30 51.27003 -0.63546 12363 ft 303 kts 249°
2026-04-30 19:31 51.25758 -0.70031 13568 ft 309 kts 249°
2026-04-30 19:31 51.25121 -0.73325 14144 ft 312 kts 248°
2026-04-30 19:31 51.23826 -0.79997 15246 ft 317 kts 248°
2026-04-30 19:32 51.23168 -0.83381 15809 ft 320 kts 248°
2026-04-30 19:32 51.22504 -0.86787 16374 ft 323 kts 248°
2026-04-30 19:32 51.21833 -0.90222 16912 ft 326 kts 248°
2026-04-30 19:32 51.21152 -0.93677 17482 ft 327 kts 246°
2026-04-30 19:33 51.20157 -0.96907 18017 ft 323 kts 232°
2026-04-30 19:33 51.18880 -0.99813 18548 ft 324 kts 228°
2026-04-30 19:33 51.17498 -1.02667 19022 ft 326 kts 227°
2026-04-30 19:33 51.16087 -1.05518 19524 ft 328 kts 227°
2026-04-30 19:34 51.14671 -1.08381 20018 ft 331 kts 227°
2026-04-30 19:34 51.13246 -1.11273 20536 ft 333 kts 227°
2026-04-30 19:34 51.10378 -1.17124 21550 ft 337 kts 227°
2026-04-30 19:35 51.08934 -1.20077 22050 ft 339 kts 226°
2026-04-30 19:35 51.07476 -1.23050 22582 ft 342 kts 226°
2026-04-30 19:35 51.06009 -1.26038 23103 ft 344 kts 226°
2026-04-30 19:35 51.04531 -1.29048 23631 ft 346 kts 226°
2026-04-30 19:36 51.03543 -1.31061 23944 ft 348 kts 226°
2026-04-30 19:36 51.01562 -1.35093 24537 ft 351 kts 226°
2026-04-30 19:36 50.99506 -1.40809 25269 ft 364 kts 245°
2026-04-30 19:37 50.98756 -1.44680 25742 ft 369 kts 250°
2026-04-30 19:37 50.98111 -1.48640 26204 ft 372 kts 251°
2026-04-30 19:37 50.97493 -1.52578 26661 ft 374 kts 251°
2026-04-30 19:37 50.96854 -1.56587 27148 ft 374 kts 251°
2026-04-30 19:38 50.96201 -1.60592 27686 ft 373 kts 251°
2026-04-30 19:38 50.95541 -1.64561 28218 ft 372 kts 251°
2026-04-30 19:38 50.94873 -1.68521 28709 ft 370 kts 251°
2026-04-30 19:38 50.94202 -1.72461 29202 ft 369 kts 251°
2026-04-30 19:39 50.93529 -1.76390 29674 ft 368 kts 251°
2026-04-30 19:39 50.92864 -1.80254 30124 ft 367 kts 251°
2026-04-30 19:39 50.92193 -1.84144 30503 ft 366 kts 251°
2026-04-30 19:39 50.91519 -1.88039 30858 ft 365 kts 251°
2026-04-30 19:40 50.90850 -1.91898 31243 ft 363 kts 252°
2026-04-30 19:40 50.90183 -1.95739 31611 ft 360 kts 252°
2026-04-30 19:40 50.89519 -1.99544 31986 ft 357 kts 251°
2026-04-30 19:40 50.88843 -2.03358 32106 ft 362 kts 251°
2026-04-30 19:41 50.87472 -2.11074 32127 ft 363 kts 251°
2026-04-30 19:41 50.86127 -2.18685 32133 ft 358 kts 251°
2026-04-30 19:42 50.84785 -2.26271 32129 ft 358 kts 251°
2026-04-30 19:42 50.83439 -2.33861 32124 ft 358 kts 251°
2026-04-30 19:43 50.82097 -2.41396 32134 ft 358 kts 251°
2026-04-30 19:44 50.80070 -2.52719 32127 ft 357 kts 251°
2026-04-30 19:44 50.78967 -2.60304 32119 ft 345 kts 256°
2026-04-30 19:45 50.78093 -2.67852 32126 ft 349 kts 256°
2026-04-30 19:45 50.77678 -2.71534 32109 ft 330 kts 256°
2026-04-30 19:45 50.77280 -2.75051 32117 ft 323 kts 256°
2026-04-30 19:46 50.76483 -2.81965 32143 ft 318 kts 255°
2026-04-30 19:46 50.75676 -2.88875 32122 ft 321 kts 255°
2026-04-30 19:47 50.74863 -2.95804 32118 ft 321 kts 255°
2026-04-30 19:47 50.74033 -3.02827 32122 ft 332 kts 255°
2026-04-30 19:48 50.73169 -3.10101 32118 ft 346 kts 256°
2026-04-30 19:48 50.72259 -3.17732 32114 ft 361 kts 256°
2026-04-30 19:49 50.71304 -3.25696 32105 ft 378 kts 256°
2026-04-30 19:49 50.70305 -3.33983 32110 ft 396 kts 255°
2026-04-30 19:49 50.69782 -3.38293 32105 ft 404 kts 255°
2026-04-30 19:50 50.68702 -3.47173 32104 ft 420 kts 255°
2026-04-30 19:50 50.67575 -3.56381 32107 ft 435 kts 256°
2026-04-30 19:51 50.66401 -3.65901 32110 ft 448 kts 256°
2026-04-30 19:51 50.65187 -3.75672 32129 ft 461 kts 255°
2026-04-30 19:52 50.63925 -3.85659 32110 ft 473 kts 255°
2026-04-30 19:52 50.62642 -3.95960 32108 ft 481 kts 258°
2026-04-30 19:53 50.61969 -4.06426 32103 ft 481 kts 262°
2026-04-30 19:53 50.61536 -4.16881 32100 ft 481 kts 263°
2026-04-30 19:54 50.61076 -4.27401 32091 ft 480 kts 262°
2026-04-30 19:54 50.60574 -4.37873 32091 ft 480 kts 262°
2026-04-30 19:55 50.60049 -4.48349 32094 ft 480 kts 262°
2026-04-30 19:55 50.59515 -4.58819 32098 ft 480 kts 262°
2026-04-30 19:56 50.58971 -4.69302 32089 ft 480 kts 262°
2026-04-30 19:56 50.58421 -4.79759 32080 ft 479 kts 261°
2026-04-30 19:57 50.57861 -4.90191 32077 ft 479 kts 261°
2026-04-30 19:57 50.57296 -5.00567 32078 ft 479 kts 261°
2026-04-30 19:58 50.56717 -5.11005 32077 ft 479 kts 261°
2026-04-30 19:58 50.56130 -5.21434 32074 ft 479 kts 261°
2026-04-30 19:59 50.55499 -5.31860 32075 ft 478 kts 261°
2026-04-30 20:00 50.54539 -5.47480 32074 ft 478 kts 261°
2026-04-30 20:00 50.53918 -5.57849 32098 ft 479 kts 261°
2026-04-30 20:01 50.52975 -5.73461 32072 ft 477 kts 260°
2026-04-30 20:01 50.52333 -5.83845 32073 ft 477 kts 260°
2026-04-30 20:02 50.51354 -5.99409 32071 ft 477 kts 260°
2026-04-30 20:03 50.50354 -6.14968 32079 ft 476 kts 259°
2026-04-30 20:03 50.49682 -6.25253 32075 ft 476 kts 259°
2026-04-30 20:04 50.48995 -6.35610 32072 ft 476 kts 259°
2026-04-30 20:05 50.47948 -6.51125 32097 ft 476 kts 259°
2026-04-30 20:05 50.46828 -6.66598 32070 ft 474 kts 258°
2026-04-30 20:06 50.46082 -6.76895 32070 ft 475 kts 258°
2026-04-30 20:06 50.45353 -6.87112 32064 ft 475 kts 258°
2026-04-30 20:07 50.44616 -6.97407 32101 ft 475 kts 258°
2026-04-30 20:08 50.43496 -7.12802 32063 ft 472 kts 258°
2026-04-30 20:08 50.42738 -7.23041 32059 ft 473 kts 257°
2026-04-30 20:09 50.41969 -7.33296 32057 ft 473 kts 257°
2026-04-30 20:09 50.40802 -7.48650 32054 ft 472 kts 257°
2026-04-30 20:10 50.39623 -7.63891 32054 ft 471 kts 257°
2026-04-30 20:11 50.38419 -7.79164 32058 ft 471 kts 257°
2026-04-30 20:11 50.37582 -7.89334 32078 ft 470 kts 256°
2026-04-30 20:12 50.36501 -8.04665 32051 ft 474 kts 260°
2026-04-30 20:13 50.36257 -8.14937 32051 ft 476 kts 262°
2026-04-30 20:13 50.36065 -8.25313 32051 ft 478 kts 261°
2026-04-30 20:14 50.35838 -8.35716 32082 ft 478 kts 260°
2026-04-30 20:14 50.35585 -8.46091 32047 ft 477 kts 259°
2026-04-30 20:15 50.35318 -8.56473 32043 ft 477 kts 259°
2026-04-30 20:15 50.35041 -8.66854 32044 ft 477 kts 259°
2026-04-30 20:16 50.34758 -8.77165 32047 ft 477 kts 259°
2026-04-30 20:16 50.34463 -8.87553 32052 ft 478 kts 259°
2026-04-30 20:17 50.34159 -8.97966 32044 ft 479 kts 259°
2026-04-30 20:17 50.33846 -9.08379 32040 ft 478 kts 259°
2026-04-30 20:18 50.33524 -9.18788 32038 ft 478 kts 258°
2026-04-30 20:18 50.33187 -9.29192 32072 ft 479 kts 258°
2026-04-30 20:19 50.32795 -9.39636 32039 ft 481 kts 258°
2026-04-30 20:19 50.32415 -9.50090 32037 ft 481 kts 258°
2026-04-30 20:20 50.32051 -9.60493 32037 ft 481 kts 258°
2026-04-30 20:20 50.31681 -9.70945 32034 ft 481 kts 258°
2026-04-30 20:21 50.31302 -9.81398 32029 ft 481 kts 258°
2026-04-30 20:21 50.30912 -9.91851 32029 ft 481 kts 258°
2026-04-30 20:22 50.30512 -10.02295 32025 ft 481 kts 258°
2026-04-30 20:22 50.30104 -10.12736 32026 ft 480 kts 258°
2026-04-30 20:23 50.29688 -10.23109 32044 ft 482 kts 259°
2026-04-30 20:23 50.29257 -10.33603 32026 ft 484 kts 259°
2026-04-30 20:24 50.28819 -10.44103 32022 ft 484 kts 259°
2026-04-30 20:24 50.28370 -10.54609 32021 ft 484 kts 259°
2026-04-30 20:25 50.27709 -10.68578 32033 ft 485 kts 259°
2026-04-30 20:26 50.26958 -10.84401 32016 ft 487 kts 260°
2026-04-30 20:26 50.26224 -11.00229 32013 ft 487 kts 260°
2026-04-30 20:27 50.25209 -11.21316 32015 ft 491 kts 261°
2026-04-30 20:28 50.24148 -11.42583 32007 ft 491 kts 261°
2026-04-30 20:30 50.22766 -11.69142 32003 ft 491 kts 261°
2026-04-30 20:31 50.20977 -12.00867 31997 ft 485 kts 261°
2026-04-30 20:32 50.19434 -12.27404 31995 ft 492 kts 262°
2026-04-30 20:33 50.18495 -12.43356 31992 ft 492 kts 262°
2026-04-30 20:34 50.17531 -12.59326 31995 ft 494 kts 262°
2026-04-30 20:35 50.16547 -12.75261 31994 ft 494 kts 262°
2026-04-30 20:35 50.15536 -12.91257 31993 ft 494 kts 262°
2026-04-30 20:36 50.14848 -13.01928 31992 ft 496 kts 263°
2026-04-30 20:37 50.13789 -13.18008 31993 ft 497 kts 263°
2026-04-30 20:37 50.13027 -13.28716 31994 ft 497 kts 263°
2026-04-30 20:38 50.12276 -13.39419 31999 ft 497 kts 263°
2026-04-30 20:38 50.11539 -13.50096 31993 ft 494 kts 264°
2026-04-30 20:39 50.10431 -13.66021 31994 ft 493 kts 263°